Location: Myrnam
(53.6612°N, 111.2289°W)
Time: 16:48:32
(UTC+00:00)

Envisat - Pass Details

Date: 10 June 2023
Orbit: 763 x 764 km, 98.2° (Epoch: 26 September)

Event Time Altitude Azimuth Distance (km) Brightness Sun altitude
Rises 09:43:11 0° 28° (NNE) 3,242 8.8 -7.7°
Reaches altitude 10° 09:46:55 10° 57° (ENE) 2,310 6.7 -7.4°
Maximum altitude 09:49:11 13° 83° (E) 2,110 5.9 -7.2°
Drops below altitude 10° 09:51:26 10° 110° (ESE) 2,303 5.7 -7.0°
Sets 09:55:08 0° 138° (SE) 3,222 6.1 -6.7°
